Location: Paddlesworth
(51.1000°N, 1.1333°E)
Time: 08:32:33
(UTC+00:00)

Spot 2 Rocket - Pass Details

Date: 11 May 2021
Orbit: 758 x 771 km, 98.5° (Epoch: 20 June)

Event Time Altitude Azimuth Distance (km) Brightness Sun altitude
Exits shadow 20:22:06 - 138° (SE) 2,434 5.4 -7.0°
Reaches altitude 10° 20:22:28 10° 137° (SE) 2,291 5.3 -7.1°
Maximum altitude 20:27:14 44° 66° (ENE) 1,040 4.0 -7.6°
Drops below altitude 10° 20:32:02 10° 355° (N) 2,301 6.7 -8.2°
Sets 20:34:25 0° 350° (N) 3,231 7.7 -8.4°
